User: anonymous   Login
Location: Unspecified
(0.0000°N, 0.0000°E)
Time: 04:36:40
(UTC+00:00)
Language:

NOAA 17 - Orbit

View from above orbital plane
View from above orbital plane
View from above satellite
View from above satellite

Ground track
Ground track

The orbit data is extracted from the following two-line orbital elements,

1 27453U 02032A   16043.58356924  .00000096  00000-0  58501-4 0  9992
2 27453  98.3687  23.0100 0011354 192.2194 167.8712 14.24924621708891
Epoch (UTC): 12 February 2016 14:00:20
Eccentricity: 0.0011354
inclination: 98.3687°
perigee height: 800 km
apogee height: 817 km
right ascension of ascending node: 23.0100°
argument of perigee: 192.2194°
revolutions per day: 14.24924621
mean anomaly at epoch: 167.8712°
orbit number at epoch: 70889

The dashed part of the orbit path shows where the satellite is in the earth's shadow,  

DLR